Kindakun Rocks, British Columbia

9:22 AM PST on December 15, 2017 (GMT -0800)
Kindakun Rocks

Weather History for CWQS - December, 2013

Change the Weather History Date:

Monday, December 30, 2013

  Actual Average (CYZP) Record (CYZP)
Temperature  
Mean Temperature 45 °F -  
Max Temperature 47 °F 40 °F 50 °F (2000)
Min Temperature 43 °F 33 °F 21 °F (1996)
Degree Days  
Heating Degree Days 20    
Moisture  
Dew Point -    
Average Humidity    
Maximum Humidity    
Minimum Humidity    
Precipitation  
Precipitation 0.28 in - - ()
Sea Level Pressure  
Sea Level Pressure 29.86 in    
Wind  
Wind Speed 19 mph ()    
Max Wind Speed 30 mph    
Max Gust Speed 37 mph    
Averages and records for this station are not official NWS values.
T = Trace of Precipitation, MM = Missing Value Source: Averaged Metar Reports

Daily Weather History Graph

Daily Weather History Graph

Search for Another Location

Airport or City:

Trip Planner

Search our weather history database for the weather conditions in past years. The results will help you decide how hot, cold, wet, or windy it might be!

Date:

Astronomy

Dec. 30, 2013 Rise Set
Actual Time 9:06 AM PST 4:41 PM PST
Civil Twilight 8:23 AM PST 5:24 PM PST
Nautical Twilight 7:38 AM PST 6:09 PM PST
Astronomical Twilight 6:56 AM PST 6:51 PM PST
Moon 6:56 AM PST (12/30) 3:28 PM PST (12/30)
Length of Visible Light 9h 00m
Length of Day
7h 35m
Waning Crescent, 4% of the Moon is Illuminated
Dec 30
Waning Crescent
Jan 1
New
Jan 7
First Quarter
Jan 15
Full
Jan 23
Last Quarter

Hourly Weather History & Observations

Time (PST) Temp. Windchill Dew Point Humidity Pressure Visibility Wind Dir Wind Speed Gust Speed Precip Events Conditions
12:00 AM 47.1 °F - - N/A% 29.89 in - South 26.5 mph 32.2 mph 0.01 in   Unknown
1:00 AM 47 °F - - % 29.86 in - South 27.6 mph - -  
1:00 AM 46.8 °F - - N/A% 29.86 in - South 27.6 mph - N/A   Unknown
2:00 AM 46.6 °F - - N/A% 29.84 in - South 29.9 mph - N/A   Unknown
3:00 AM 46.4 °F 37.7 °F - N/A% 29.80 in - South 26.5 mph 32.2 mph N/A   Unknown
4:00 AM 46 °F - - % 29.78 in - South 26.5 mph - -  
4:00 AM 46.4 °F 37.7 °F - N/A% 29.78 in - South 26.5 mph 33.4 mph 0.03 in   Unknown
5:00 AM 46.8 °F - - N/A% 29.74 in - South 28.8 mph 34.5 mph 0.04 in   Unknown
6:00 AM 47.1 °F - - N/A% 29.70 in - South 28.8 mph 36.8 mph 0.05 in   Unknown
7:00 AM 47 °F - - % 29.70 in - South 23.0 mph - -  
7:00 AM 46.9 °F - - N/A% 29.70 in - South 23.0 mph 32.2 mph 0.09 in   Unknown
8:00 AM 46.8 °F - - N/A% 29.71 in - West 15.0 mph - 0.08 in   Unknown
9:00 AM 46.2 °F 38.7 °F - N/A% 29.74 in - NW 19.6 mph - N/A   Unknown
10:00 AM 45 °F - - % 29.78 in - NW 19.6 mph - -  
10:00 AM 44.8 °F 36.9 °F - N/A% 29.78 in - NW 19.6 mph - N/A   Unknown
11:00 AM 43.7 °F 37.7 °F - N/A% 29.81 in - WNW 11.5 mph - N/A   Unknown
12:00 PM 45.7 °F 39.8 °F - N/A% 29.83 in - WNW 12.7 mph - 0.01 in   Unknown
1:00 PM 46 °F - - % 29.85 in - West 12.7 mph - -  
1:00 PM 45.5 °F 39.6 °F - N/A% 29.85 in - West 12.7 mph 18.4 mph N/A   Unknown
2:00 PM 43.7 °F 35.7 °F - N/A% 29.88 in - WNW 18.4 mph - N/A   Unknown
3:00 PM 45.7 °F 38.8 °F - N/A% 29.90 in - WNW 16.1 mph 23.0 mph N/A   Unknown
4:00 PM 46 °F - - % 29.91 in - West 15.0 mph - -  
4:00 PM 45.9 °F 39.4 °F - N/A% 29.91 in - West 15.0 mph - N/A   Unknown
5:00 PM 45.3 °F 38.7 °F - N/A% 29.94 in - WNW 15.0 mph - N/A   Unknown
6:00 PM 44.1 °F 35.4 °F - N/A% 29.97 in - WNW 21.9 mph - N/A   Unknown
7:00 PM 44 °F - - % 30.00 in - WNW 17.3 mph - -  
7:00 PM 44.4 °F 36.9 °F - N/A% 30.00 in - WNW 17.3 mph - N/A   Unknown
8:00 PM 43.7 °F 37.3 °F - N/A% 29.99 in - West 12.7 mph - N/A   Unknown
9:00 PM 45.1 °F 40.8 °F - N/A% 30.00 in - NW 8.1 mph - N/A   Unknown
10:00 PM 45 °F - - % 30.01 in - West 3.5 mph - -  
10:00 PM 45.0 °F 43.5 °F - N/A% 30.01 in - West 3.5 mph - N/A   Unknown
11:00 PM 45.3 °F 42.3 °F - N/A% 30.04 in - SSW 5.8 mph - N/A   Unknown